カタログに戻る

STARLINK-33823

運用中通信VLEO
NORAD 63661·PAYLOAD·🇺🇸 United States

打ち上げ Apr 25, 2025 から Cape Canaveral Space Force Station

Loading…

次のパス (今後24時間)

TLE

最新Source: CelesTrak SupGP

元期: Sep 15, 2026, 03:06 UTC

1 63661C 25083AD  26258.12965278  .00014725  00000+0  53326-3 0  2581
2 63661  43.0039  15.4610 0001507 264.4210 251.1383 15.27575680    12

AllMySatでSTARLINK-33823をリアルタイム追跡

Download on the App Store